Location: Glash�tten
(50.2140°N, 8.4010°E)
Time: 23:39:03
(UTC+02:00)

N. Korean satellite - Visible Passes

Search period start: 26 March 2023 00:00
Search period end: 05 April 2023 01:00
Orbit: 392 x 417 km, 97.3° (Epoch: 26 March)

Date Brightness Start Highest point End Pass type
(mag) Time Alt. Az. Time Alt. Az. Time Alt. Az.
27 Mar 9.2 06:18:04 10° NE 06:20:30 20° E 06:22:54 10° SE visible
29 Mar 9.3 06:12:07 10° NE 06:14:18 17° E 06:16:27 10° SE visible
31 Mar 9.5 06:05:45 10° NE 06:07:33 14° E 06:09:20 10° SE visible
02 Apr 9.7 05:59:05 10° ENE 06:00:17 12° E 06:01:30 10° ESE visible
